Location: Greenhawk Observatory
(37.3417°N, 122.0298°W)
Time: 02:47:48
(UTC-07:00)

Daily predictions for brighter satellites

Satellite Brightness Start Highest point End
(mag) Time Altitude Azimuth Time Altitude Azimuth Time Altitude Azimuth
Cosmos 1733 Rocket 4.5 00:07:43 31° NE 00:07:43 31° NE 00:10:28 10° NNE
Cosmos 1869 Rocket 4.5 00:07:59 44° WNW 00:07:59 44° WNW 00:11:59 10° N
Cosmos 2181 Rocket 4.4 00:02:05 10° NNW 00:08:19 56° W 00:09:29 49° SW
H-2A R/B 3.7 00:07:46 24° WSW 00:08:37 25° W 00:13:01 10° NW
CZ-4B R/B 4.1 00:11:03 16° NNE 00:11:03 16° NNE 00:12:07 10° NNE
ASTEX 1 4.3 00:06:10 10° NNE 00:09:47 38° ENE 00:09:47 38° ENE
Cosmos 2184 Rocket 3.8 00:13:18 78° S 00:13:46 89° E 00:19:59 10° N
CZ-4C R/B 3.8 00:08:44 10° NNW 00:15:21 40° NE 00:18:45 27° E
Cosmos 2237 Rocket 3.9 00:11:45 10° NW 00:15:49 20° W 00:16:19 20° WSW
Meteor 1-26 Rocket 4.4 00:12:17 10° NNW 00:17:51 63° W 00:17:58 62° WSW
FALCON 9 R/B 2.9 00:07:31 10° W 00:23:29 60° SSW 00:23:34 60° SSW
Okean 1-7 4.4 00:23:08 10° NNW 00:26:02 33° NW 00:26:02 33° NW
ALOS 2 3.6 00:28:24 43° NNE 00:28:24 43° NNE 00:31:35 10° N
Terra 4.1 00:27:44 15° W 00:27:48 15° W 00:30:27 10° WNW
Cosmos 158 Rocket 4.4 00:28:36 10° NNW 00:33:01 56° WNW 00:33:01 56° WNW
GEOS 3 Rocket 4.2 00:36:02 47° ENE 00:36:28 48° NE 00:41:26 10° NNW
Cosmos 2341 Rocket 4.3 00:38:55 56° E 00:38:58 56° E 00:45:11 10° NNE
NOSS 3-4 (A) 3.8 00:41:50 55° E 00:41:50 55° E 00:47:32 10° NE
NOSS 3-4 (C) 3.8 00:41:58 54° E 00:41:58 54° E 00:47:37 10° NE
Meteor 2-3 Rocket 4.3 00:41:36 46° W 00:42:02 47° WNW 00:47:32 10° N
Cosmos 921 Rocket 4.4 00:50:38 35° N 00:50:38 35° N 00:53:10 10° NNE
Meteor 2-10 Rocket 3.8 00:45:33 10° NNW 00:50:50 68° WNW 00:50:50 68° WNW
Cosmos 2263 Rocket 3.0 00:53:10 42° ENE 00:53:10 42° ENE 00:57:30 10° NE
Lacrosse 4 Rocket 4.1 00:51:48 10° WNW 00:52:45 13° WNW 00:52:45 13° WNW
Meteor 1-10 Rocket 4.3 00:52:39 10° NNW 00:58:22 76° WNW 00:58:22 76° WNW
SL-16 R/B 4.3 01:07:33 10° WNW 01:10:02 15° W 01:10:02 15° W
MOS 1-B Rocket 3.8 01:12:40 76° NE 01:12:40 76° NE 01:18:06 10° N
CZ-2C R/B 2.9 01:08:48 10° NNE 01:13:07 58° NE 01:13:07 58° NE
Cosmos 1607 4.0 01:08:21 10° NW 01:13:53 65° W 01:13:53 65° W
Nadezhda 3 Rocket 4.1 01:13:40 10° NNW 01:19:47 63° W 01:19:47 63° W
ATLAS 3B R/B 4.4 01:17:41 10° WNW 01:21:03 17° W 01:21:03 17° W
Geosat 4.3 01:25:32 10° NNE 01:29:58 63° NNW 01:29:58 63° NNW
Cosmos 1943 3.4 01:26:47 10° NNW 01:31:42 64° NW 01:31:42 64° NW
Cosmos 1727 Rocket 4.4 01:29:47 10° N 01:35:48 49° E 01:36:29 47° E
SeaSat 1 4.5 01:42:52 17° WNW 01:42:52 17° WNW 01:44:37 10° NW
RESURS DK-1 3.9 01:44:25 36° N 01:44:25 36° N 01:46:58 10° NNE
Meteor 1-27 Rocket 4.4 01:45:57 10° NNW 01:50:51 43° WNW 01:50:51 43° WNW
CENTAUR R/B 4.3 01:48:17 10° NNW 01:55:26 37° NE 02:02:57 10° ESE
Cosmos 1624 Rocket 4.1 01:56:25 71° NNE 01:56:25 71° NNE 02:01:04 10° NNE
Cosmos 909 Rocket 4.0 02:03:05 71° SW 02:03:50 82° WNW 02:11:06 10° NNE
CZ-4C R/B 3.2 01:57:09 10° NW 02:03:53 47° WSW 02:03:53 47° WSW
Meteor 1-14 Rocket 4.2 02:04:49 85° WSW 02:04:55 86° W 02:10:50 10° N
Cosmos 1867 4.1 02:02:27 10° NW 02:06:37 48° WNW 02:06:37 48° WNW
CZ-2C R/B 3.5 02:09:51 58° W 02:09:51 58° W 02:14:59 10° NNW
NOSS 3-2 (C) 4.0 02:04:22 10° NW 02:11:54 63° WSW 02:12:50 59° SSW
Cosmos 1452 Rocket 3.9 02:17:47 54° E 02:17:47 54° E 02:22:43 10° NNE
Meteor 2-19 Rocket 4.3 02:18:53 76° SSW 02:19:23 84° W 02:25:35 10° N
Cosmos 1812 4.1 02:19:42 10° N 02:22:32 37° NE 02:22:32 37° NE
GP-B 4.3 02:22:11 10° NNE 02:26:15 34° E 02:26:16 34° E
Meteor 1-18 Rocket 4.1 02:25:12 10° N 02:30:56 89° E 02:31:26 76° SSE
Cosmos 1844 Rocket 2.6 02:31:31 69° SE 02:31:50 70° ESE 02:37:30 10° NNE
Meteor 2-8 Rocket 4.4 02:28:00 10° NNW 02:33:59 61° W 02:34:20 60° WSW
Cosmos 1821 Rocket 4.4 02:33:34 45° SE 02:35:12 58° E 02:41:27 10° NNE
Meteor 1-20 Rocket 4.1 02:35:13 73° S 02:35:49 87° E 02:41:38 10° N
Cosmos 2263 Rocket 3.8 02:34:51 22° WNW 02:36:13 24° WNW 02:40:44 10° N
Gbstr 26 Del rocket 3.6 02:38:36 49° NNE 02:38:36 49° NNE 02:41:37 10° NE
NOSS 2-2 (D) 4.2 02:39:51 46° E 02:39:51 46° E 02:43:32 10° NE
Cosmos 1339 Rocket 4.4 02:33:45 10° NNW 02:39:43 60° W 02:40:08 58° WSW
IRS-P3 4.1 02:35:16 10° NNE 02:40:36 70° ESE 02:41:08 65° SE
Resurs 1-4 Rocket 4.5 02:38:46 10° ENE 02:41:25 14° E 02:44:05 10° ESE
IRAS Rocket 4.4 02:36:02 10° NNE 02:41:31 61° ESE 02:42:20 55° SE
Cosmos 1300 Rocket 3.7 02:43:56 68° NNE 02:43:56 68° NNE 02:47:47 10° N
Cosmos 1190 Rocket 4.2 02:39:28 10° NNW 02:44:05 56° WNW 02:44:05 56° WNW
SL-08 R/B 3.9 02:47:12 45° ESE 02:48:19 57° ENE 02:53:07 10° N
Cosmos 1844 3.7 02:48:59 63° SSE 02:49:46 73° ESE 02:55:31 10° NNE
USA 161 4.5 02:51:54 13° ENE 02:52:12 13° ENE 02:53:43 10° NE
ATLAS 5 CENTAUR R/B 4.0 02:47:26 10° NNW 02:52:49 33° NE 02:58:31 10° ESE
NOSS 2-2 (C) 3.6 02:53:55 70° ENE 02:53:55 70° ENE 02:58:06 10° NE
Meteor 1-11 Rocket 4.2 02:53:38 44° SSE 02:55:19 60° E 03:01:12 10° NNE
Cosmos 407 Rocket 3.6 02:52:06 10° NNW 02:56:54 56° W 02:56:54 56° W
Meteor 1-13 Rocket 4.4 02:54:53 10° N 03:00:36 70° E 03:02:46 39° SSE
H-2A R/B 4.5 03:02:23 29° S 03:02:23 29° S 03:19:45 10° SE
Cosmos 2278 Rocket 2.4 03:00:30 49° SSE 03:01:43 60° ESE 03:07:17 10° NNE
Cosmos 1400 Rocket 4.2 03:01:45 28° ESE 03:02:10 28° E 03:05:35 10° NNE
AQUA 3.7 02:58:04 10° NNE 03:02:50 79° E 03:03:19 70° SSE
Okean 1 4.0 02:59:00 10° NNW 03:02:05 48° NW 03:02:05 48° NW
Cosmos 1461 3.0 03:03:07 77° SE 03:03:16 78° ESE 03:07:56 10° NNE
SL-27 R/B 4.4 03:00:38 10° NNW 03:02:18 24° NW 03:02:18 24° NW
Cosmos 1535 Rocket 4.4 03:05:01 53° SSW 03:06:29 72° W 03:12:47 10° N
Cosmos 676 Rocket 3.9 03:03:54 10° NNW 03:09:00 61° WSW 03:09:11 60° WSW
Cosmos 724 4.4 03:03:09 10° NW 03:09:11 60° WSW 03:10:18 51° SSW
Centaur D-1A AC-32 4.5 03:09:37 32° S 03:10:00 32° S 03:28:25 10° ESE
COSMOS 2406 3.5 03:05:19 10° NW 03:10:47 45° WSW 03:10:50 45° WSW
Cosmos 1602 3.7 03:13:45 77° NNE 03:13:45 77° NNE 03:17:20 10° N
Spot 4 Rocket 4.4 03:09:50 10° NNE 03:14:56 58° E 03:16:31 40° SSE
NOSS 2-2 (E) 3.9 03:17:59 50° WNW 03:18:26 53° NW 03:23:08 10° NNE
Cosmos 2082 Rocket 4.3 03:17:33 10° N 03:22:17 26° ENE 03:27:00 10° ESE
Cosmos 614 Rocket 4.4 03:23:04 10° N 03:28:12 61° ENE 03:32:10 16° SSE
BREEZE-M DEB (TANK) 4.4 03:29:04 30° SSE 03:29:50 32° SE 03:33:08 10° ENE
Okean 1 Rocket 4.1 03:30:43 30° WNW 03:30:46 30° WNW 03:34:45 10° NNW
OAO 3 Copernicus 4.3 03:31:27 53° SSW 03:32:12 60° S 03:37:10 10° E
BREEZE-M TANK 2.2 03:32:57 53° E 03:32:57 53° E 03:35:33 10° ESE
Cosmos 1315 Rocket 3.9 03:31:10 29° SE 03:32:34 39° E 03:36:21 10° NNE
APEX 4.3 03:33:46 26° ESE 03:33:48 26° ESE 03:36:33 10° NE
Cosmos 1954 Rocket 4.2 03:28:54 10° NNW 03:33:49 46° WSW 03:34:21 44° WSW
SAR-Lupe-3 4.5 03:33:40 71° SE 03:33:59 81° ENE 03:37:33 10° N
IRS-1D 3.9 03:29:12 10° NNE 03:34:09 54° E 03:36:26 30° SSE
NPP 4.2 03:29:31 10° N 03:34:36 44° WNW 03:36:04 36° WSW
USA 234 3.2 03:30:37 10° SE 03:37:10 89° NE 03:43:44 10° NW
ERS-2 3.0 03:34:17 10° N 03:37:41 37° WNW 03:37:41 37° WNW
Meteor 2-4 Rocket 3.7 03:33:32 10° N 03:38:55 76° E 03:42:22 23° SSE
CBERS 1 LM4 rocket 4.5 03:34:17 10° N 03:39:04 60° WNW 03:40:19 44° SW
Cosmos 1934 Rocket 4.3 03:37:12 36° SW 03:39:18 51° W 03:45:17 10° N
Cosmos 1025 Rocket 3.0 03:41:47 10° NNW 03:46:01 59° W 03:46:53 48° SW
CENTAUR R/B 3.2 03:38:45 10° NW 03:46:29 56° WSW 03:54:31 10° S
CZ-2D R/B 2.5 03:42:45 10° NNE 03:48:10 61° E 03:51:36 23° S
Cosmos 1447 Rocket 4.5 03:43:46 10° N 03:49:56 80° E 03:55:08 15° S
Meteor 2-15 Rocket 4.4 03:45:06 10° NNW 03:51:13 69° W 03:54:51 25° S
Cosmos 1455 Rocket 3.1 03:50:38 35° S 03:52:29 82° E 03:56:57 10° N
UNK 4.1 03:49:05 14° SSE 03:52:58 65° ENE 03:57:35 10° N
Okean O Rocket 3.5 03:50:33 10° NE 03:54:05 24° E 03:57:37 10° SSE
UNKNOWN OBJECT B 3.8 03:51:25 10° NNE 03:55:22 45° E 03:57:44 21° SSE
SME Rocket 3.3 03:54:19 14° SSE 03:57:25 61° ENE 04:01:35 10° N
Cosmos 1356 3.9 03:58:01 43° W 03:58:23 45° WNW 04:01:49 10° N
Cosmos 1110 Rocket 4.1 03:56:39 26° S 03:59:38 72° ESE 04:04:55 10° NNE
Cosmos 1536 3.6 03:59:10 32° W 03:59:48 34° WNW 04:03:32 10° NNW
Cosmos 1833 Rocket 4.0 03:54:46 10° N 04:00:03 40° ENE 04:05:17 10° SE
ARIANE 5 R/B 2.4 03:56:05 10° N 04:01:04 72° WNW 04:03:35 30° SSW
Timation 2 Rocket 3.8 03:57:44 10° NNW 04:03:51 82° WSW 04:09:49 10° SSE
Okean 2 3.3 04:01:34 10° NNW 04:05:39 72° W 04:07:44 28° S
Cosmos 2061 Rocket 4.2 04:04:03 15° S 04:09:26 75° E 04:15:51 10° N
EO 1 Del DPAF 3.2 04:10:24 23° S 04:12:43 72° WSW 04:16:37 10° NNW
USA 129 4.5 04:14:07 10° SE 04:15:42 19° ENE 04:17:15 10° NNE
Cosmos 1140 Rocket 4.5 04:13:43 10° NW 04:17:57 26° W 04:19:15 24° WSW
COSMOS 2487 4.2 04:15:22 10° NW 04:17:24 19° W 04:17:24 19° W
Cosmos 1544 Rocket 4.4 04:16:58 26° WSW 04:18:33 34° WNW 04:22:34 10° NNW
Cosmos 1331 Rocket 3.9 04:16:03 22° SSW 04:19:27 85° WNW 04:24:41 10° NNE
Cosmos 1633 4.1 04:19:01 20° W 04:19:31 20° WNW 04:22:17 10° NNW
Resurs 1-4 Rocket 2.2 04:16:25 10° N 04:21:41 64° WNW 04:25:17 20° SSW
USA 161 3.4 04:23:06 17° WNW 04:23:06 17° WNW 04:24:32 10° NW
SL-16 R/B 2.6 04:20:52 10° S 04:26:58 57° W 04:33:05 10° NNW
Cosmos 2016 Rocket 4.1 04:23:33 10° S 04:29:50 79° E 04:36:06 10° N
Cosmos 2369 Rocket 4.4 04:27:21 10° SSE 04:31:26 21° E 04:35:33 10° NE
Atlas Centaur 2 4.4 04:26:14 14° SSW 04:31:30 25° SSE 04:38:01 10° ESE
Timation 1 Rocket 4.5 04:27:20 15° SSW 04:32:23 77° ESE 04:38:25 10° NNE
ATLAS 5 CENTAUR R/B 2.7 04:31:53 10° NW 04:37:42 45° WSW 04:43:49 10° S
ADEOS II 4.4 04:36:11 10° NE 04:40:08 21° E 04:44:04 10° SE
CZ-2C R/B 3.8 04:39:46 10° SSE 04:44:32 87° ENE 04:49:20 10° NNW
Cosmos 1725 Rocket 4.3 04:39:45 10° S 04:45:59 69° E 04:52:11 10° NNE
Cosmos 2278 Rocket 3.9 04:42:21 10° W 04:46:13 19° NW 04:50:11 10° N
PAYLOAD B 4.4 04:41:45 10° NNE 04:47:22 79° ESE 04:52:58 10° S
CZ-2D R/B 3.7 04:46:54 10° N 04:50:47 50° WNW 04:54:21 12° SSW
Cosmos 2173 Rocket 4.3 04:48:45 12° SSW 04:54:12 47° W 05:00:09 10° N
CZ-4B DEB 4.4 04:49:20 10° NNE 04:54:56 80° ESE 05:00:30 10° S
Cosmos 1302 Rocket 4.1 04:54:06 11° SSW 04:59:02 63° WNW 05:04:15 10° NNE
PSLV R/B 3.2 04:57:18 14° WSW 05:00:13 80° SSE 05:03:34 10° ENE
Cosmos 2285 Rocket 4.0 04:56:39 10° SSW 05:02:55 77° WNW 05:09:16 10° NNE
CZ-4B R/B 3.3 05:00:39 10° N 05:06:20 74° WNW 05:11:56 10° SSW
Cosmos 2082 Rocket 2.6 05:01:09 10° NW 05:06:30 42° WSW 05:11:48 10° S
Cosmos 1825 Rocket 3.8 05:03:37 10° N 05:07:59 76° E 05:12:22 10° S
Cosmos 1743 2.8 05:04:10 10° S 05:07:59 80° E 05:11:49 10° N
Cosmos 1500 3.5 05:05:34 10° SSW 05:09:20 50° W 05:13:08 10° N
Cosmos 1515 3.9 05:07:09 10° NNW 05:10:52 49° W 05:14:33 10° S
Cosmos 2084 3.2 05:07:02 10° SSW 05:10:54 85° ESE 05:14:45 10° NE
Cosmos 1354 Rocket 4.3 05:06:30 10° NNW 05:11:45 72° ENE 05:16:58 10° SSE
Cosmos 1726 Rocket 3.9 05:08:45 10° S 05:13:09 70° E 05:17:31 10° NNE
Cosmos 1346 Rocket 3.3 05:10:52 10° NNW 05:14:40 41° W 05:18:25 10° SSW
OAO 3 Copernicus 4.4 05:11:37 10° W 05:16:36 65° S 05:21:34 10° ESE
USA 234 4.3 05:15:58 10° SSW 05:20:37 21° WSW 05:25:18 10° WNW
Cosmos 2058 Rocket 3.4 05:19:42 10° S 05:24:01 69° E 05:28:21 10° NNE
USA 116 4.2 05:21:18 10° SSE 05:25:07 61° ENE 05:28:32 10° N
Okean-O 2.7 05:20:42 10° NNE 05:25:10 86° ESE 05:29:35 10° SSW
CZ-3B DEB 4.5 04:58:52 10° NW 05:25:14 82° NE 05:33:02 10° SE
Cosmos 1992 Rocket 4.4 05:20:26 10° S 05:25:36 66° ESE 05:30:47 10° NNE
